Regional Weather Roundup
Issued by NWS Mobile, AL

Home | Current Version | Previous Version | Text Only | Print | Product List | Glossary On
Versions: 1 2 3 4 5 6 7 8 9 10 11 12 13 14 15 16 17 18 19 20 21 22 23 24 25 26 27 28 29 30 31 32 33 34 35 36 37 38 39 40 41 42 43 44 45 46 47 48 49 50
000
ASUS44 KMOB 250612
RWRMOB
REGIONAL WEATHER ROUNDUP
NATIONAL WEATHER SERVICE MOBILE AL
1200 AM CST SAT FEB 25 2017

NOTE: "FAIR" INDICATES FEW OR NO CLOUDS BELOW 12,000 FEET WITH NO
      SIGNIFICANT WEATHER AND/OR OBSTRUCTIONS TO VISIBILITY.

  * THESE STATIONS ARE PART OF THE UNIVERSITY OF SOUTH ALABAMA
    MESONET AND ARE NOT UNDER NWS OR FAA QUALITY CONTROL.

ALZ061>064-250700-
COASTAL ALABAMA

CITY           SKY/WX    TMP DP  RH WIND       PRES   REMARKS
MOBILE REG APT MOCLDY    66  64  93 SW7       29.85R
6HR MIN TEMP:  66; 6HR MAX TEMP:  69;

BROOKLEY FIELD PTCLDY    67  67 100 CALM      29.85R
6HR MIN TEMP:  67; 6HR MAX TEMP:  69;

USA CAMPUS*      N/A     64  64 100 CALM      29.85R
DOG RIVER*       N/A     66  66 100 SW6       30.55R


CITY           SKY/WX    TMP DP  RH WIND       PRES   REMARKS
GULF SHORES    MOCLDY    68  68 100 SW8       29.84S

$$

ALZ051>060-250700-
INTERIOR SOUTHWEST AND SOUTH CENTRAL ALABAMA

CITY           SKY/WX    TMP DP  RH WIND       PRES   REMARKS
GREENVILLE     PTCLDY    65  61  87 SW7       29.81S
6HR MIN TEMP:  65; 6HR MAX TEMP:  74;

EVERGREEN      CLOUDY    66  63  90 SW7       29.83S
6HR MIN TEMP:  63; 6HR MAX TEMP:  73;

ATMORE*          N/A    N/A N/A N/A SW7       29.85S
ANDALUSIA/OPP  CLOUDY    66  62  87 SW6       29.82F
6HR MIN TEMP:  66; 6HR MAX TEMP:  75;

ANDALUSIA*       N/A     64  63  94 S8        29.82F
FLORALA APT    CLOUDY    65  62  90 SW5       29.85S
6HR MIN TEMP:  64; 6HR MAX TEMP:  71;

FLORALA*         N/A     64  64 100 S3        30.50S

$$

FLZ001>006-250700-
WESTERN FLORIDA PANHANDLE

CITY           SKY/WX    TMP DP  RH WIND       PRES   REMARKS
PENSACOLA      MOCLDY    69  65  86 SW7       29.83S
6HR MIN TEMP:  66; 6HR MAX TEMP:  69;

NAS PENSACOLA  CLOUDY    69  67  93 SW7       29.83S
6HR MIN TEMP:  66; 6HR MAX TEMP:  69;

MILTON         NOT AVBL
WHTNG S FIELD  MOCLDY    69  66  90 S5        29.83F
6HR MIN TEMP:  67; 6HR MAX TEMP:  71;



CITY           SKY/WX    TMP DP  RH WIND       PRES   REMARKS
JAY*             N/A     66  64  94 S7        29.84F
DUKE FIELD     MOCLDY    64  64 100 CALM      29.82F FOG
CRESTVIEW      CLOUDY    65  64  97 SW5       29.85S FOG
6HR MIN TEMP:  65; 6HR MAX TEMP:  67;

VALPARAISO     PTCLDY    66  65  97 CALM      29.84S
6HR MIN TEMP:  65; 6HR MAX TEMP:  69;

DESTIN         CLEAR     71  71 100 VRB3      29.83S
6HR MIN TEMP:  71; 6HR MAX TEMP:  71;


$$

MSZ076-079-250700-
INTERIOR SOUTHEAST MISSISSIPPI

CITY           SKY/WX    TMP DP  RH WIND       PRES   REMARKS
LEAKESVILLE*   NOT AVBL
AGRICOLA*        N/A     63  63 100 S2        29.83S

$$

MARINE OBSERVATIONS

STATION/POSITION TIME  TEMP    WIND        PRES    WAVE
                       AIR SEA DIR/SP/G            HT/PER
                 (UTC) (F)     (DEG/KT/KT) (MB)    (FT/S)
PASCAGOULA       0548          220/  7/  9 1010.6R
PETIT BOIS ISLND 0548          230/ 10/ 11 1011.4R
GRAND BAY        0445   69     220/  7     1011.0S
KATRINA CUT      0530          220/ 10     1009.8S
CEDAR POINT      0530   69     220/  9     1010.2S
E DAUPHIN ISLAND 0500   69     210/  3/  5 1010.0R
MIDDLE BAY LIGHT 0500   69     170/  7     1010.2
USCG MOBILE BAY  0548          230/  3/  4 1011.0R
STATE DOCKS      0542                      1010.3R
MEAHER PARK      0530   68     190/  8     1009.8F
WEEKS BAY        0445   69                   N/A
FORT MORGAN      0548          220/ 12/ 13   N/A
12 S ORANGE BCH  0550   70 69  220/  6/  8 1010.3R   1/ 3
PENSACOLA BAY    0542          180/  4/  6 1010.4S
67 S FORT MORGAN 0530   71     220/ 14     1010.8S

$$

SELECTED LOCATIONS ACROSS THE REGION

CITY           SKY/WX    TMP DP  RH WIND       PRES   REMARKS
NEW ORLEANS    PTCLDY    66  64  93 SW6       29.85S
GULFPORT       CLEAR     67  65  93 VRB3      29.84R
PASCAGOULA AP  CLOUDY    68  64  87 SW5       29.85R
PASCAGOULA*    NOT AVBL
HATTIESBURG    CLEAR     65  60  84 SW6       29.83R
LAUREL         CLEAR     64  57  77 SW5       29.84R
MERIDIAN       PTCLDY    65  62  90 SW7       29.79S
JACKSON        CLOUDY    63  53  70 N21G29    29.87R
MONTGOMERY     CLEAR     68  60  75 SW9       29.80S
TROY           PTCLDY    61  60  97 SW5       29.82F
ASHFORD*         N/A     64  63  94 S8        29.82F
DOTHAN         CLOUDY    63  63 100 SW12      29.86S FOG
PANAMA CITY    FOG       61  59  93 CALM      29.83R VSB 3/4

$$




USA.gov is the U.S. government's official web portal to all federal, state and local government web resources and services.